Date,Time,Wetness (Wet Dry or Ice),Wind Speed (m/s),Temperature (C),Humidity (%),Pressure (mb),Radiation (W/m^2)
2023-05-06,22:20:00,DRY,9.23,7.13,42.3,775.67,0.0
2023-05-06,22:25:00,DRY,9.35,7.10,42.0,776.00,0.0
2023-05-06,22:30:00,DRY,8.93,7.17,42.3,776.00,0.0
2023-05-06,22:35:00,DRY,10.00,7.25,41.5,776.00,0.0
2023-05-06,22:40:00,DRY,8.17,7.37,42.0,776.00,0.0
2023-05-06,22:45:00,DRY,8.70,7.45,43.5,776.00,0.0
2023-05-06,22:50:00,DRY,9.43,7.53,44.0,776.00,0.0
2023-05-06,22:55:00,DRY,9.85,7.40,42.5,775.50,0.0
2023-05-06,23:00:00,DRY,10.07,7.13,44.3,775.67,0.0
2023-05-06,23:05:00,DRY,8.25,7.30,43.0,776.00,0.0
2023-05-06,23:10:00,DRY,10.20,7.37,44.3,775.33,0.0
2023-05-06,23:15:00,DRY,8.60,7.60,47.0,775.50,0.0
2023-05-06,23:20:00,DRY,10.07,7.40,45.3,775.33,0.0
2023-05-06,23:25:00,DRY,7.25,7.35,46.0,775.00,0.0
2023-05-06,23:30:00,DRY,9.27,7.13,43.7,775.33,0.0
2023-05-06,23:35:00,DRY,8.65,6.95,45.0,775.00,0.0
2023-05-06,23:40:00,DRY,9.07,6.97,43.0,775.33,0.0
2023-05-06,23:45:00,DRY,7.05,6.65,44.5,775.00,0.0
2023-05-06,23:50:00,DRY,8.30,6.43,47.0,775.00,0.0
2023-05-06,23:55:00,DRY,9.60,6.00,54.5,775.00,0.0
2023-05-07,00:00:00,DRY,8.70,4.80,85.3,775.00,0.0
2023-05-07,00:05:00,DRY,7.55,4.60,77.0,775.00,0.0
2023-05-07,00:10:00,DRY,8.73,5.20,64.0,775.00,0.0
2023-05-07,00:15:00,DRY,9.50,4.65,72.0,775.00,0.0
2023-05-07,00:20:00,DRY,8.33,4.93,68.0,775.00,0.0
2023-05-07,00:25:00,DRY,9.25,5.25,65.0,775.00,0.0
2023-05-07,00:30:00,DRY,6.93,4.30,96.0,775.00,0.0
2023-05-07,00:35:00,DRY,6.70,4.10,100.0,775.00,0.0
2023-05-07,00:40:00,DRY,9.23,3.93,92.3,775.00,0.0
2023-05-07,00:45:00,DRY,7.60,3.95,93.5,775.00,0.0
2023-05-07,00:50:00,DRY,9.90,4.80,73.0,775.00,0.0
2023-05-07,00:55:00,DRY,8.20,5.50,64.0,775.00,0.0
2023-05-07,01:00:00,DRY,7.03,5.70,65.3,775.00,0.0
2023-05-07,01:05:00,DRY,8.20,6.25,61.5,775.00,0.0
2023-05-07,01:10:00,DRY,8.57,6.83,57.3,775.00,0.0
2023-05-07,01:15:00,DRY,8.35,6.80,56.5,775.00,0.0
2023-05-07,01:20:00,DRY,7.90,6.93,53.7,775.00,0.0
2023-05-07,01:25:00,DRY,6.60,7.00,52.5,775.00,0.0
2023-05-07,01:30:00,DRY,8.13,7.00,52.7,775.00,0.0
2023-05-07,01:35:00,DRY,7.90,6.90,54.5,775.00,0.0
2023-05-07,01:40:00,DRY,6.93,6.50,58.7,775.00,0.0
2023-05-07,01:45:00,DRY,8.05,6.45,57.0,775.00,0.0
2023-05-07,01:50:00,DRY,7.63,6.57,55.3,775.00,0.0
2023-05-07,01:55:00,DRY,9.90,6.65,53.5,775.00,0.0
2023-05-07,02:00:00,DRY,7.87,6.70,52.3,775.00,0.0
2023-05-07,02:05:00,DRY,7.60,6.55,53.0,775.00,0.0
2023-05-07,02:10:00,DRY,7.97,6.53,51.7,775.00,0.0
2023-05-07,02:15:00,DRY,9.05,6.55,50.5,775.00,0.0
2023-05-07,02:20:00,DRY,9.53,6.53,51.0,775.00,0.0
2023-05-07,02:25:00,DRY,9.25,6.45,54.5,774.50,0.0
2023-05-07,02:30:00,DRY,8.27,6.30,54.7,774.67,0.0
2023-05-07,02:35:00,DRY,8.85,6.30,57.0,775.00,0.0
2023-05-07,02:40:00,DRY,7.63,6.33,57.3,774.33,0.0
2023-05-07,02:45:00,DRY,9.20,6.30,58.0,774.50,0.0
2023-05-07,02:50:00,DRY,7.20,6.07,59.0,774.00,0.0
2023-05-07,02:55:00,DRY,7.50,6.00,60.0,774.00,0.0
2023-05-07,03:00:00,DRY,8.57,6.03,59.7,774.00,0.0
2023-05-07,03:05:00,DRY,5.90,5.90,61.0,774.00,0.0
2023-05-07,03:10:00,DRY,8.67,5.73,61.7,774.00,0.0
2023-05-07,03:15:00,DRY,6.65,5.55,65.0,774.00,0.0
2023-05-07,03:20:00,DRY,8.67,5.60,63.7,774.00,0.0
2023-05-07,03:25:00,DRY,8.20,5.55,64.5,774.00,0.0
2023-05-07,03:30:00,DRY,8.97,5.17,68.7,774.00,0.0
2023-05-07,03:35:00,DRY,7.30,5.25,63.5,774.00,0.0
2023-05-07,03:40:00,DRY,8.47,5.57,58.3,774.00,0.0
2023-05-07,03:45:00,DRY,7.45,5.80,57.0,774.00,0.0
2023-05-07,03:50:00,DRY,8.50,5.67,57.3,774.00,0.0
2023-05-07,03:55:00,DRY,8.15,5.80,55.5,774.00,0.0
2023-05-07,04:00:00,DRY,6.33,5.83,54.3,774.00,0.0
2023-05-07,04:05:00,DRY,9.05,5.85,52.5,774.00,0.0
2023-05-07,04:10:00,DRY,7.70,6.07,51.7,774.00,0.0
2023-05-07,04:15:00,DRY,7.00,6.20,48.0,774.00,0.0
2023-05-07,04:20:00,DRY,8.53,6.37,46.3,774.00,0.0
2023-05-07,04:25:00,DRY,10.25,6.75,43.0,774.00,0.0
2023-05-07,04:30:00,DRY,8.70,6.73,43.0,774.00,0.0
2023-05-07,04:35:00,DRY,10.40,6.65,43.5,774.00,0.0
2023-05-07,04:40:00,DRY,9.60,6.65,44.0,774.00,0.0
2023-05-07,04:45:00,DRY,7.80,6.40,46.0,774.00,0.0
2023-05-07,04:50:00,DRY,8.97,6.37,45.3,773.67,0.0
2023-05-07,04:55:00,DRY,8.40,6.55,41.0,774.00,0.0
2023-05-07,05:00:00,DRY,7.63,6.43,42.7,774.00,0.0
2023-05-07,05:05:00,DRY,10.30,6.40,41.0,774.00,0.0
2023-05-07,05:10:00,DRY,11.17,6.30,40.3,774.00,0.0
2023-05-07,05:15:00,DRY,6.65,6.30,37.5,774.00,0.0
2023-05-07,05:20:00,DRY,9.17,6.47,39.7,774.00,0.0
2023-05-07,05:25:00,DRY,8.15,6.50,40.5,774.00,0.0
2023-05-07,05:30:00,DRY,6.30,6.30,40.7,774.00,0.0
2023-05-07,05:35:00,DRY,8.50,6.05,46.5,774.00,0.0
2023-05-07,05:40:00,DRY,11.33,5.50,57.0,774.00,0.0
2023-05-07,05:45:00,DRY,6.40,5.20,60.0,774.00,0.0
2023-05-07,05:50:00,DRY,9.90,5.30,57.0,774.00,0.0
2023-05-07,05:55:00,DRY,11.65,5.85,54.0,774.00,0.0
2023-05-07,06:00:00,DRY,8.73,6.13,51.3,773.67,0.0
2023-05-07,06:05:00,DRY,9.20,6.60,46.5,774.00,0.0
2023-05-07,06:10:00,DRY,8.43,6.90,41.3,774.00,0.0
2023-05-07,06:15:00,DRY,11.70,7.30,38.0,773.50,0.0
2023-05-07,06:20:00,DRY,7.17,7.23,40.0,774.00,0.0
2023-05-07,06:25:00,DRY,9.40,7.65,35.0,774.00,4.5
2023-05-07,06:30:00,DRY,10.43,7.53,37.0,773.67,12.3
2023-05-07,06:35:00,DRY,9.90,8.10,34.0,774.00,25.0
2023-05-07,06:40:00,DRY,9.30,7.97,33.3,774.00,19.0
2023-05-07,06:45:00,DRY,9.60,8.25,29.0,774.00,29.0
2023-05-07,06:50:00,DRY,9.70,7.60,39.7,774.00,77.0
2023-05-07,06:55:00,DRY,6.80,7.70,41.0,774.00,102.5
2023-05-07,07:00:00,DRY,8.53,5.83,71.3,774.00,53.3
2023-05-07,07:05:00,DRY,8.55,4.40,82.0,774.00,140.0
2023-05-07,07:10:00,DRY,8.50,5.10,49.0,774.00,159.7
2023-05-07,07:15:00,DRY,10.40,5.45,33.5,774.00,176.0
2023-05-07,07:20:00,DRY,9.53,5.77,32.7,774.00,192.3
2023-05-07,07:25:00,DRY,8.70,5.70,32.5,774.00,221.5
2023-05-07,07:30:00,DRY,8.90,6.03,32.7,774.00,242.7
2023-05-07,07:35:00,DRY,7.85,6.15,34.0,774.00,265.0
2023-05-07,07:40:00,DRY,9.43,6.17,34.0,774.33,286.7
2023-05-07,07:45:00,DRY,8.80,6.20,33.5,774.00,307.5
2023-05-07,07:50:00,DRY,7.00,6.30,32.3,774.00,329.3
2023-05-07,07:55:00,DRY,10.15,6.10,32.5,774.50,351.5
2023-05-07,08:00:00,DRY,8.27,6.33,31.7,774.00,374.0
2023-05-07,08:05:00,DRY,7.70,6.40,31.5,774.50,395.5
2023-05-07,08:10:00,DRY,8.83,6.67,33.3,774.67,417.0
2023-05-07,08:15:00,DRY,8.95,7.00,33.0,774.50,437.5
2023-05-07,08:20:00,DRY,7.10,6.90,33.0,775.00,458.7
2023-05-07,08:25:00,DRY,6.95,6.90,34.0,775.00,479.0
2023-05-07,08:30:00,DRY,9.23,7.10,34.0,775.00,500.3
2023-05-07,08:35:00,DRY,11.30,7.55,32.5,775.00,521.0
2023-05-07,08:40:00,DRY,9.27,8.10,28.7,775.00,541.7
2023-05-07,08:45:00,DRY,8.85,8.40,26.5,775.00,561.5
2023-05-07,08:50:00,DRY,8.77,8.60,25.7,775.00,582.0
2023-05-07,08:55:00,DRY,9.45,9.20,19.5,775.00,601.0
2023-05-07,09:00:00,DRY,10.30,9.80,15.7,775.00,620.3
2023-05-07,09:05:00,DRY,8.75,10.00,15.5,775.00,638.0
2023-05-07,09:10:00,DRY,11.20,10.37,13.7,775.00,657.3
2023-05-07,09:15:00,DRY,9.40,10.40,13.5,775.00,676.5
2023-05-07,09:20:00,DRY,10.93,10.37,14.3,775.00,694.7
2023-05-07,09:25:00,DRY,6.05,10.30,14.5,775.00,713.5
2023-05-07,09:30:00,DRY,10.90,10.43,14.3,775.00,731.3
2023-05-07,09:35:00,DRY,9.75,10.60,15.0,775.50,748.0
2023-05-07,09:40:00,DRY,9.53,10.30,16.0,775.67,765.7
2023-05-07,09:45:00,DRY,9.40,10.40,15.0,775.50,783.0
2023-05-07,09:50:00,DRY,9.57,10.47,17.0,775.67,797.3
2023-05-07,09:55:00,DRY,9.80,10.50,15.5,776.00,800.0
2023-05-07,10:00:00,DRY,8.87,10.27,18.3,775.67,800.7
2023-05-07,10:05:00,DRY,11.20,10.25,18.0,775.50,800.0
2023-05-07,10:10:00,DRY,9.97,10.13,17.0,776.00,800.3
2023-05-07,10:15:00,DRY,9.70,10.15,16.5,776.00,800.5
2023-05-07,10:20:00,DRY,7.90,10.40,17.3,776.00,800.3
2023-05-07,10:25:00,DRY,10.50,10.55,16.5,775.50,800.5
2023-05-07,10:30:00,DRY,9.67,10.77,16.0,776.00,800.3
2023-05-07,10:35:00,DRY,6.90,11.05,16.0,776.00,800.0
2023-05-07,10:40:00,DRY,8.33,11.23,16.3,776.00,800.0
2023-05-07,10:45:00,DRY,10.60,11.60,16.0,775.50,800.0
2023-05-07,10:50:00,DRY,7.90,11.53,15.0,776.00,800.3
2023-05-07,10:55:00,DRY,8.90,11.75,17.0,776.00,800.5
2023-05-07,11:00:00,DRY,8.87,11.97,13.3,776.00,800.3
2023-05-07,11:05:00,DRY,8.05,12.20,13.5,776.00,800.5
2023-05-07,11:10:00,DRY,10.57,12.43,12.7,776.00,800.0
2023-05-07,11:15:00,DRY,12.25,12.40,13.5,776.00,800.0
2023-05-07,11:20:00,DRY,11.00,12.50,14.0,776.00,800.0
2023-05-07,11:25:00,DRY,12.20,11.95,16.5,775.00,800.0
2023-05-07,11:30:00,DRY,8.03,12.47,13.7,776.00,800.7
2023-05-07,11:35:00,DRY,8.90,12.45,14.5,776.00,800.5
2023-05-07,11:40:00,DRY,9.03,12.53,15.7,776.00,800.3
2023-05-07,11:45:00,DRY,9.80,12.05,16.0,775.50,800.5
2023-05-07,11:50:00,DRY,9.77,12.43,14.7,776.00,800.0
2023-05-07,11:55:00,DRY,8.70,12.05,15.5,776.00,800.0
2023-05-07,12:00:00,DRY,9.67,12.43,14.3,776.00,800.0
2023-05-07,12:05:00,DRY,8.95,12.55,13.5,776.00,800.0
2023-05-07,12:10:00,DRY,8.17,12.63,13.7,776.00,800.0
2023-05-07,12:15:00,DRY,7.35,12.85,13.5,776.00,800.0
2023-05-07,12:20:00,DRY,10.80,12.57,13.3,776.00,800.0
2023-05-07,12:25:00,DRY,9.30,12.55,12.5,776.00,800.0
2023-05-07,12:30:00,DRY,8.57,12.67,12.3,776.00,800.0
2023-05-07,12:35:00,DRY,11.30,12.70,12.5,776.00,800.0
2023-05-07,12:40:00,DRY,9.67,12.77,11.3,776.00,800.0
2023-05-07,12:45:00,DRY,8.85,12.95,12.0,776.00,800.0
2023-05-07,12:50:00,DRY,10.67,12.97,11.0,776.00,800.0
2023-05-07,12:55:00,DRY,7.60,12.75,10.5,776.00,800.5
2023-05-07,13:00:00,DRY,9.77,12.80,11.3,776.00,800.0
2023-05-07,13:05:00,DRY,9.65,12.80,11.0,776.00,800.0
2023-05-07,13:10:00,DRY,8.30,13.03,10.7,775.67,800.3
2023-05-07,13:15:00,DRY,8.70,12.90,11.0,776.00,800.0
2023-05-07,13:20:00,DRY,7.97,13.07,10.3,776.00,800.0
2023-05-07,13:25:00,DRY,8.45,13.15,11.0,776.00,800.0
2023-05-07,13:30:00,DRY,7.40,12.70,11.0,776.00,800.0
2023-05-07,13:35:00,DRY,8.40,12.70,12.0,776.00,800.0
2023-05-07,13:40:00,DRY,7.40,12.83,11.0,776.00,800.0
2023-05-07,13:45:00,DRY,9.05,12.95,11.0,776.00,800.0
2023-05-07,13:50:00,DRY,8.43,12.57,11.3,775.67,800.0
2023-05-07,13:55:00,DRY,7.10,12.50,11.0,776.00,800.0
2023-05-07,14:00:00,DRY,8.43,12.53,10.7,776.00,800.0
2023-05-07,14:05:00,DRY,6.75,12.80,11.0,776.00,801.0
2023-05-07,14:10:00,DRY,5.97,12.70,10.7,776.00,800.0
2023-05-07,14:15:00,DRY,5.45,12.85,11.5,776.00,800.5
2023-05-07,14:20:00,DRY,7.10,12.87,12.0,776.00,800.0
2023-05-07,14:25:00,DRY,7.50,12.95,12.5,776.00,800.0
2023-05-07,14:30:00,DRY,7.27,12.97,12.3,776.00,800.7
2023-05-07,14:35:00,DRY,9.20,12.85,12.0,776.00,800.0
2023-05-07,14:40:00,DRY,7.77,12.73,12.3,776.00,800.0
2023-05-07,14:45:00,DRY,9.15,12.65,13.5,776.00,800.0
2023-05-07,14:50:00,DRY,7.40,12.83,12.3,776.00,800.0
2023-05-07,14:55:00,DRY,11.90,12.75,14.0,776.00,800.0
2023-05-07,15:00:00,DRY,10.10,12.77,12.7,776.00,800.0
2023-05-07,15:05:00,DRY,5.70,12.95,12.5,776.00,800.0
2023-05-07,15:10:00,DRY,7.57,13.00,13.0,776.00,800.0
2023-05-07,15:15:00,DRY,7.25,13.00,13.5,776.00,800.0
2023-05-07,15:20:00,DRY,6.70,13.03,12.0,776.00,800.0
2023-05-07,15:25:00,DRY,7.05,12.85,12.5,776.00,800.5
2023-05-07,15:30:00,DRY,8.60,13.00,12.0,775.67,800.3
2023-05-07,15:35:00,DRY,8.95,12.85,12.0,776.00,800.0
2023-05-07,15:40:00,DRY,6.60,12.93,12.3,776.00,800.0
2023-05-07,15:45:00,DRY,8.85,13.00,12.5,776.00,800.0
2023-05-07,15:50:00,DRY,8.97,12.70,13.7,776.00,800.0
2023-05-07,15:55:00,DRY,10.20,12.65,14.0,776.00,800.0
2023-05-07,16:00:00,DRY,9.17,12.63,14.3,776.00,800.0
2023-05-07,16:05:00,DRY,7.35,12.60,15.0,776.00,800.5
2023-05-07,16:10:00,DRY,7.27,12.47,16.0,775.67,800.0
2023-05-07,16:15:00,DRY,8.05,12.40,16.5,776.00,794.0
2023-05-07,16:20:00,DRY,9.23,12.43,19.0,775.33,777.3
2023-05-07,16:25:00,DRY,7.65,12.30,22.0,775.00,760.0
2023-05-07,16:30:00,DRY,8.33,12.17,22.3,775.33,743.7
2023-05-07,16:35:00,DRY,8.30,11.95,22.0,775.00,726.5
2023-05-07,16:40:00,DRY,9.20,11.93,22.7,775.33,708.7
2023-05-07,16:45:00,DRY,9.25,12.05,23.0,775.00,690.0
2023-05-07,16:50:00,DRY,8.13,11.83,25.7,775.33,671.3
2023-05-07,16:55:00,DRY,6.75,11.85,28.5,776.00,652.0
2023-05-07,17:00:00,DRY,9.03,11.73,29.0,775.33,632.7
2023-05-07,17:05:00,DRY,10.50,11.70,31.0,775.50,614.0
2023-05-07,17:10:00,DRY,9.17,11.73,31.0,775.67,593.7
2023-05-07,17:15:00,DRY,8.25,11.65,30.0,775.50,574.5
2023-05-07,17:20:00,DRY,9.20,11.43,30.3,775.33,555.7
2023-05-07,17:25:00,DRY,9.95,11.05,30.5,776.00,535.0
2023-05-07,17:30:00,DRY,8.87,11.00,31.7,776.00,514.7
2023-05-07,17:35:00,DRY,6.90,10.65,32.5,776.00,492.5
2023-05-07,17:40:00,DRY,9.67,10.60,34.0,775.33,472.0
2023-05-07,17:45:00,DRY,8.25,10.50,33.0,775.00,451.5
2023-05-07,17:50:00,DRY,7.90,10.37,33.0,775.33,430.0
2023-05-07,17:55:00,DRY,9.90,10.45,34.5,775.50,408.5
2023-05-07,18:00:00,DRY,8.43,10.43,34.3,775.67,386.3
2023-05-07,18:05:00,DRY,9.45,10.50,35.0,775.00,364.5
2023-05-07,18:10:00,DRY,7.27,10.27,36.0,775.67,342.7
2023-05-07,18:15:00,DRY,8.80,10.30,35.5,775.50,322.5
2023-05-07,18:20:00,DRY,10.43,10.07,37.3,775.33,301.0
2023-05-07,18:25:00,DRY,9.65,9.95,38.0,776.00,279.0
2023-05-07,18:30:00,DRY,10.23,10.03,37.7,775.67,258.0
2023-05-07,18:35:00,DRY,9.35,10.10,36.0,775.50,238.0
2023-05-07,18:40:00,DRY,7.60,9.80,37.7,775.67,216.7
2023-05-07,18:45:00,DRY,7.95,9.70,38.0,775.50,197.0
2023-05-07,18:50:00,DRY,8.27,9.50,37.7,776.00,176.0
2023-05-07,18:55:00,DRY,9.65,9.45,38.0,775.50,156.5
2023-05-07,19:00:00,DRY,10.03,9.40,38.3,775.33,137.3
2023-05-07,19:05:00,DRY,11.30,9.40,39.0,775.50,114.0
2023-05-07,19:10:00,DRY,10.20,9.37,38.0,775.67,94.0
2023-05-07,19:15:00,DRY,8.85,9.35,38.5,776.00,75.5
2023-05-07,19:20:00,DRY,8.17,9.30,38.3,775.67,59.7
2023-05-07,19:25:00,DRY,12.40,9.45,37.0,775.50,52.0
2023-05-07,19:30:00,DRY,12.40,9.50,38.3,775.67,37.7
2023-05-07,19:35:00,DRY,10.30,9.50,39.0,776.00,24.5
2023-05-07,19:40:00,DRY,7.97,9.27,38.3,775.67,15.0
2023-05-07,19:45:00,DRY,9.75,9.05,42.0,776.00,10.0
2023-05-07,19:50:00,DRY,11.07,8.93,45.7,776.00,4.3
2023-05-07,19:55:00,DRY,12.35,8.95,48.0,776.00,0.0
2023-05-07,20:00:00,DRY,7.83,8.97,49.3,776.00,0.0
2023-05-07,20:05:00,DRY,8.60,8.65,49.0,776.00,0.0
2023-05-07,20:10:00,DRY,10.00,8.77,51.0,776.00,0.0
2023-05-07,20:15:00,DRY,8.80,8.50,49.5,776.00,0.0
2023-05-07,20:20:00,DRY,8.70,8.37,48.7,776.00,0.0
2023-05-07,20:25:00,DRY,7.50,8.50,49.5,776.00,0.0
2023-05-07,20:30:00,DRY,7.97,8.33,47.3,776.00,0.0
2023-05-07,20:35:00,DRY,12.35,8.30,51.0,776.00,0.0
2023-05-07,20:40:00,DRY,11.40,8.43,49.3,776.00,0.0
2023-05-07,20:45:00,DRY,6.85,8.20,47.5,776.00,0.0
2023-05-07,20:50:00,DRY,8.77,8.37,49.3,776.00,0.0
2023-05-07,20:55:00,DRY,6.65,8.30,46.0,776.00,0.0
2023-05-07,21:00:00,DRY,9.77,8.60,46.0,776.33,0.0
2023-05-07,21:05:00,DRY,7.85,8.70,46.0,776.50,0.0
2023-05-07,21:10:00,DRY,11.77,8.67,44.7,776.33,0.0
2023-05-07,21:15:00,DRY,8.25,8.75,44.5,776.50,0.0
2023-05-07,21:20:00,DRY,8.83,8.83,43.7,776.67,0.0
2023-05-07,21:25:00,DRY,8.30,8.85,43.5,776.50,0.0
2023-05-07,21:30:00,DRY,10.93,8.63,43.7,776.33,0.0
2023-05-07,21:35:00,DRY,8.40,8.75,43.0,776.00,0.0
2023-05-07,21:40:00,DRY,9.50,8.80,43.7,776.67,0.0
2023-05-07,21:45:00,DRY,12.60,8.90,45.5,777.00,0.0
2023-05-07,21:50:00,DRY,9.37,8.77,47.0,777.00,0.0
2023-05-07,21:55:00,DRY,8.55,8.80,47.0,777.00,0.0
2023-05-07,22:00:00,DRY,10.33,8.67,46.7,777.00,0.0
2023-05-07,22:05:00,DRY,12.55,8.65,48.5,777.00,0.0
2023-05-07,22:10:00,DRY,8.47,8.40,47.0,776.67,0.0
2023-05-07,22:15:00,DRY,9.25,8.40,49.0,777.00,0.0
2023-05-07,22:20:00,DRY,10.23,8.67,48.3,776.67,0.0
2023-05-07,22:25:00,DRY,7.00,8.50,48.0,777.00,0.0
2023-05-07,22:30:00,DRY,7.80,8.47,50.0,777.00,0.0
2023-05-07,22:35:00,DRY,12.40,8.55,50.0,777.00,0.0
2023-05-07,22:40:00,DRY,8.30,8.70,50.3,777.00,0.0
2023-05-07,22:45:00,DRY,10.25,8.35,51.5,777.00,0.0
2023-05-07,22:50:00,DRY,11.80,8.40,52.7,777.00,0.0
2023-05-07,22:55:00,DRY,9.25,8.35,53.0,776.50,0.0
2023-05-07,23:00:00,DRY,13.07,8.53,54.3,776.67,0.0
2023-05-07,23:05:00,DRY,10.95,8.20,55.0,776.50,0.0
2023-05-07,23:10:00,DRY,9.07,7.97,55.3,776.67,0.0
2023-05-07,23:15:00,DRY,7.10,8.00,56.0,777.00,0.0
2023-05-07,23:20:00,DRY,12.20,7.97,56.7,777.00,0.0
2023-05-07,23:25:00,DRY,10.45,7.80,56.5,777.00,0.0
2023-05-07,23:30:00,DRY,9.77,7.60,58.0,777.00,0.0
2023-05-07,23:35:00,DRY,7.45,8.05,58.5,777.00,0.0
2023-05-07,23:40:00,DRY,8.90,8.00,57.7,777.00,0.0
2023-05-07,23:45:00,DRY,10.80,7.75,56.5,777.00,0.0
2023-05-07,23:50:00,DRY,11.50,7.57,57.0,777.00,0.0
2023-05-07,23:55:00,DRY,10.20,7.60,57.0,777.00,0.0
2023-05-08,00:00:00,DRY,8.67,7.83,58.3,777.00,0.0
2023-05-08,00:05:00,DRY,11.35,8.00,57.5,777.00,0.0
2023-05-08,00:10:00,DRY,9.63,7.87,58.3,777.00,0.0
2023-05-08,00:15:00,DRY,7.15,7.95,59.0,777.00,0.0
2023-05-08,00:20:00,DRY,8.40,7.93,58.3,776.67,0.0
2023-05-08,00:25:00,DRY,7.90,8.10,59.0,776.50,0.0
2023-05-08,00:30:00,DRY,10.07,8.23,57.0,776.00,0.0
2023-05-08,00:35:00,DRY,9.20,8.40,56.5,777.00,0.0
2023-05-08,00:40:00,DRY,9.93,8.43,56.7,776.67,0.0
2023-05-08,00:45:00,DRY,11.70,8.40,56.5,777.00,0.0
2023-05-08,00:50:00,DRY,7.77,8.47,56.7,777.00,0.0
2023-05-08,00:55:00,DRY,12.35,8.40,57.5,777.00,0.0
2023-05-08,01:00:00,DRY,9.57,8.47,57.0,776.67,0.0
2023-05-08,01:05:00,DRY,7.90,8.40,57.5,776.50,0.0
2023-05-08,01:10:00,DRY,8.53,8.43,57.7,776.33,0.0
2023-05-08,01:15:00,DRY,9.65,8.30,57.5,776.00,0.0
2023-05-08,01:20:00,DRY,11.00,8.40,58.0,776.33,0.0
2023-05-08,01:25:00,DRY,10.25,7.80,60.5,776.50,0.0
2023-05-08,01:30:00,DRY,8.30,8.47,58.3,776.00,0.0
2023-05-08,01:35:00,DRY,8.30,8.30,59.0,776.00,0.0
2023-05-08,01:40:00,DRY,9.03,8.20,59.0,776.00,0.0
2023-05-08,01:45:00,DRY,11.25,8.35,58.0,776.00,0.0
2023-05-08,01:50:00,DRY,7.87,8.37,57.3,776.00,0.0
2023-05-08,01:55:00,DRY,6.55,7.85,58.0,776.00,0.0
2023-05-08,02:00:00,DRY,8.43,8.03,58.0,776.00,0.0
2023-05-08,02:05:00,DRY,11.45,8.10,57.0,776.00,0.0
2023-05-08,02:10:00,DRY,11.00,7.87,58.0,776.00,0.0
2023-05-08,02:15:00,DRY,11.10,8.10,54.5,776.00,0.0
2023-05-08,02:20:00,DRY,8.23,8.13,55.7,776.00,0.0
2023-05-08,02:25:00,DRY,8.35,8.25,52.5,776.00,0.0
2023-05-08,02:30:00,DRY,10.00,8.03,53.3,775.67,0.0
2023-05-08,02:35:00,DRY,5.90,8.10,53.0,776.00,0.0
2023-05-08,02:40:00,DRY,9.87,8.00,50.7,775.67,0.0
2023-05-08,02:45:00,DRY,7.55,8.40,52.0,775.50,0.0
2023-05-08,02:50:00,DRY,7.47,8.40,50.3,775.33,0.0
2023-05-08,02:55:00,DRY,9.35,8.45,50.5,775.50,0.0
2023-05-08,03:00:00,DRY,8.93,8.17,49.7,775.00,0.0
2023-05-08,03:05:00,DRY,7.15,8.05,49.5,776.00,0.0
2023-05-08,03:10:00,DRY,9.50,8.23,49.3,776.00,0.0
2023-05-08,03:15:00,DRY,7.35,8.45,49.5,776.00,0.0
2023-05-08,03:20:00,DRY,7.27,8.33,48.0,775.67,0.0
2023-05-08,03:25:00,DRY,7.20,8.20,46.0,776.00,0.0
2023-05-08,03:30:00,DRY,9.67,8.20,46.0,775.67,0.0
2023-05-08,03:35:00,DRY,7.50,8.35,44.5,776.00,0.0
2023-05-08,03:40:00,DRY,9.20,7.90,44.3,775.00,0.0
2023-05-08,03:45:00,DRY,8.55,8.05,43.5,775.50,0.0
2023-05-08,03:50:00,DRY,8.93,8.30,41.0,775.00,0.0
2023-05-08,03:55:00,DRY,9.10,8.40,41.0,775.50,0.0
2023-05-08,04:00:00,DRY,8.50,8.40,40.0,775.00,0.0
2023-05-08,04:05:00,DRY,7.85,8.35,38.5,775.00,0.0
2023-05-08,04:10:00,DRY,11.33,8.30,37.0,775.33,0.0
2023-05-08,04:15:00,DRY,9.70,8.15,34.0,775.00,0.0
2023-05-08,04:20:00,DRY,10.03,8.17,32.7,775.00,0.0
2023-05-08,04:25:00,DRY,6.65,8.40,33.5,775.50,0.0
2023-05-08,04:30:00,DRY,8.87,8.10,30.0,775.00,0.0
2023-05-08,04:35:00,DRY,8.35,8.25,29.0,775.00,0.0
2023-05-08,04:40:00,DRY,8.07,8.10,24.3,775.00,0.0
2023-05-08,04:45:00,DRY,9.35,7.90,22.5,775.00,0.0
2023-05-08,04:50:00,DRY,9.83,8.00,21.0,775.00,0.0
2023-05-08,04:55:00,DRY,10.85,7.85,19.0,775.00,0.0
2023-05-08,05:00:00,DRY,9.23,8.13,20.0,775.00,0.0
2023-05-08,05:05:00,DRY,9.90,8.35,20.0,775.00,0.0
2023-05-08,05:10:00,DRY,7.70,8.43,19.3,775.00,0.0
2023-05-08,05:15:00,DRY,10.80,8.60,18.0,775.00,0.0
2023-05-08,05:20:00,DRY,7.93,8.00,14.7,775.00,0.0
2023-05-08,05:25:00,DRY,7.80,8.05,15.0,775.00,0.0
2023-05-08,05:30:00,DRY,10.63,8.23,16.3,775.00,0.0
2023-05-08,05:35:00,DRY,8.10,8.30,15.5,775.00,0.0
2023-05-08,05:40:00,DRY,8.70,8.60,17.3,775.33,0.0
2023-05-08,05:45:00,DRY,8.95,8.70,16.0,775.00,0.0
2023-05-08,05:50:00,DRY,11.10,8.73,17.0,775.00,0.0
2023-05-08,05:55:00,DRY,9.25,8.95,18.5,775.00,0.0
2023-05-08,06:00:00,DRY,11.60,8.93,18.3,775.00,0.0
2023-05-08,06:05:00,DRY,8.55,9.00,16.5,775.00,0.0
2023-05-08,06:10:00,DRY,8.93,8.90,15.3,775.00,0.0
2023-05-08,06:15:00,DRY,9.10,8.85,19.5,775.00,0.0
2023-05-08,06:20:00,DRY,11.33,9.13,17.0,775.00,0.3
2023-05-08,06:25:00,DRY,9.80,9.35,17.5,775.00,5.5
2023-05-08,06:30:00,DRY,9.30,9.30,18.0,774.67,17.0
2023-05-08,06:35:00,DRY,11.40,9.55,18.5,775.00,30.0
2023-05-08,06:40:00,DRY,12.57,9.43,16.3,775.00,45.3
2023-05-08,06:45:00,DRY,11.40,9.60,19.0,775.00,61.5
2023-05-08,06:50:00,DRY,11.60,9.63,18.0,775.00,78.7
2023-05-08,06:55:00,DRY,7.95,9.65,16.5,775.00,96.5
2023-05-08,07:00:00,DRY,8.43,9.83,18.7,775.00,115.7
2023-05-08,07:05:00,DRY,9.80,10.10,19.0,775.00,134.0
2023-05-08,07:10:00,DRY,12.30,10.17,20.3,775.00,154.0
2023-05-08,07:15:00,DRY,13.15,10.55,23.0,775.00,174.5
2023-05-08,07:20:00,DRY,10.67,10.53,21.0,775.00,195.3
2023-05-08,07:25:00,DRY,11.40,10.70,19.0,775.00,215.5
2023-05-08,07:30:00,DRY,10.90,10.87,19.7,775.00,236.7
2023-05-08,07:35:00,DRY,10.90,10.90,20.0,775.00,258.0
2023-05-08,07:40:00,DRY,11.10,10.97,18.7,775.00,280.0
2023-05-08,07:45:00,DRY,9.00,11.05,19.5,775.00,300.5
2023-05-08,07:50:00,DRY,10.80,11.07,15.3,775.00,322.3
2023-05-08,07:55:00,DRY,9.35,11.15,16.5,775.50,344.5
2023-05-08,08:00:00,DRY,12.97,11.33,17.0,775.33,366.3
2023-05-08,08:05:00,DRY,13.60,11.25,12.5,775.50,386.5
2023-05-08,08:10:00,DRY,11.03,11.37,15.3,775.33,408.3
2023-05-08,08:15:00,DRY,8.50,11.45,12.5,775.50,429.0
2023-05-08,08:20:00,DRY,12.60,11.57,13.7,775.67,449.3
2023-05-08,08:25:00,DRY,10.60,12.00,13.5,776.00,470.0
2023-05-08,08:30:00,DRY,7.70,12.03,13.0,776.00,490.7
2023-05-08,08:35:00,DRY,8.20,12.00,12.5,776.00,510.0
2023-05-08,08:40:00,DRY,11.13,12.23,15.0,776.00,529.0
2023-05-08,08:45:00,DRY,9.60,12.15,12.0,776.00,550.0
2023-05-08,08:50:00,DRY,12.55,12.20,13.0,776.00,566.0
2023-05-08,08:55:00,DRY,9.45,12.25,10.5,776.00,589.5
2023-05-08,09:00:00,DRY,8.13,12.10,10.7,776.00,609.3
2023-05-08,09:05:00,DRY,9.85,12.35,11.5,776.00,628.5
2023-05-08,09:10:00,DRY,10.03,12.43,11.3,776.00,646.7
2023-05-08,09:15:00,DRY,11.85,12.45,9.5,776.00,665.5
2023-05-08,09:20:00,DRY,11.03,12.43,9.0,776.00,684.0
2023-05-08,09:25:00,DRY,11.80,12.10,8.0,776.00,702.0
2023-05-08,09:30:00,DRY,8.73,12.37,9.7,776.00,720.0
2023-05-08,09:35:00,DRY,10.80,12.50,8.5,776.00,737.5
2023-05-08,09:40:00,DRY,7.67,12.43,8.7,776.00,755.0
2023-05-08,09:45:00,DRY,10.50,12.45,8.0,777.00,772.0
2023-05-08,09:50:00,DRY,9.80,12.30,6.7,776.00,788.7
2023-05-08,09:55:00,DRY,8.55,12.35,7.0,776.00,800.5
2023-05-08,10:00:00,DRY,10.63,12.30,6.0,776.67,800.3
2023-05-08,10:05:00,DRY,9.50,12.25,7.5,776.00,800.0
2023-05-08,10:10:00,DRY,8.60,12.33,6.0,776.67,800.3
2023-05-08,10:15:00,DRY,10.85,11.85,6.5,777.00,800.0
2023-05-08,10:20:00,DRY,7.53,12.23,6.3,777.00,800.0
2023-05-08,10:25:00,DRY,10.25,12.45,5.0,776.50,800.0
2023-05-08,10:30:00,DRY,6.43,12.17,6.0,777.00,800.0
2023-05-08,10:35:00,DRY,10.85,12.30,5.5,776.00,800.5
2023-05-08,10:40:00,DRY,10.30,12.40,6.0,777.00,800.3
2023-05-08,10:45:00,DRY,9.25,12.75,6.5,777.00,800.0
2023-05-08,10:50:00,DRY,8.83,12.53,6.3,777.00,800.3
2023-05-08,10:55:00,DRY,8.40,12.75,7.5,777.00,800.5
2023-05-08,11:00:00,DRY,11.43,12.73,7.0,776.67,800.3
2023-05-08,11:05:00,DRY,8.65,12.85,6.0,777.00,800.5
2023-05-08,11:10:00,DRY,8.37,12.90,7.0,777.00,800.3
2023-05-08,11:15:00,DRY,8.90,12.90,6.5,777.00,800.0
2023-05-08,11:20:00,DRY,8.93,13.13,6.3,777.00,800.0
2023-05-08,11:25:00,DRY,12.15,13.30,7.5,777.00,800.0
2023-05-08,11:30:00,DRY,11.03,13.50,6.7,777.00,801.0
2023-05-08,11:35:00,DRY,8.50,13.35,7.0,777.00,800.5
2023-05-08,11:40:00,DRY,10.43,13.37,6.7,777.00,800.0
2023-05-08,11:45:00,DRY,7.60,13.40,7.0,777.00,800.0
2023-05-08,11:50:00,DRY,10.03,13.57,6.3,777.00,800.3
2023-05-08,11:55:00,DRY,7.90,13.45,7.0,777.00,800.5
2023-05-08,12:00:00,DRY,9.93,13.73,7.7,777.00,801.0
2023-05-08,12:05:00,DRY,9.10,13.70,8.0,777.00,801.0
2023-05-08,12:10:00,DRY,13.90,13.70,7.3,777.00,800.0
2023-05-08,12:15:00,DRY,9.35,13.60,7.5,777.00,800.0
2023-05-08,12:20:00,DRY,7.53,13.93,8.0,777.00,800.3
2023-05-08,12:25:00,DRY,8.00,14.00,8.0,777.00,800.0
2023-05-08,12:30:00,DRY,8.80,13.53,9.7,777.00,800.0
2023-05-08,12:35:00,DRY,5.40,13.80,9.0,777.00,800.0
2023-05-08,12:40:00,DRY,8.80,13.87,9.0,777.00,800.3
2023-05-08,12:45:00,DRY,10.05,13.85,8.5,777.00,800.0
2023-05-08,12:50:00,DRY,6.60,13.67,9.7,777.00,800.3